Date String (YYYY-MM-DD hh:mm:ss) UTC,Instrument flags,Ambient pressure (hPa),Sample flow (lpm),Bypass flow (lpm),Sample temperature (°C),Ambient temperature (°C),ASC tube jacket temperature (°C),LED temperature (°C),Box temperature (°C),Sample RH (%),Span deviation,Mass concentration (μg/m³),Mass concentration (μg/m³),Mass concentration (μg/m³)
DateTimeUTC,F1_M11,P_M11,Q1_M11,Q2_M11,T1_M11,T2_M11,T3_M11,T4_M11,T5_M11,U1_M11,ZSPAN_M11,X0_M11,X2_M11,X1_M11
2022-11-01 13:00:00,,0824.0,5.01,0.00,25.6,23.9,00.0,34.6,27.4,10.6,0000.0,0005.26,0002.67,0002.32
2022-11-01 13:01:00,,0824.0,5.00,0.00,25.6,23.9,00.0,34.5,27.4,10.5,0000.0,0005.24,0002.67,0002.32
2022-11-01 13:02:00,,0824.0,5.00,0.00,25.6,23.9,00.0,34.5,27.4,10.6,0000.0,0005.27,0002.67,0002.32
2022-11-01 13:03:00,,0824.0,5.00,0.00,25.6,23.9,00.0,34.5,27.4,10.6,0000.0,0005.38,0002.71,0002.31
2022-11-01 13:04:00,,0824.0,4.99,0.00,25.6,23.9,00.0,34.5,27.4,10.6,0000.0,0005.01,0002.66,0002.25
2022-11-01 13:05:00,,0824.0,5.00,0.00,25.6,23.9,00.0,34.5,27.4,10.6,0000.0,0004.97,0002.62,0002.20
2022-11-01 13:06:00,,0824.1,5.02,0.00,25.6,23.9,00.0,34.5,27.4,10.5,0000.0,0004.95,0002.58,0002.13
2022-11-01 13:07:00,,0824.1,4.98,0.00,25.6,23.9,00.0,34.5,27.4,10.5,0000.0,0004.78,0002.50,0002.09
2022-11-01 13:08:00,,0824.0,5.01,0.00,25.6,23.9,00.0,34.5,27.4,10.5,0000.0,0004.63,0002.42,0002.04
2022-11-01 13:09:00,,0824.1,5.01,0.00,25.6,23.9,00.0,34.5,27.3,10.6,0000.0,0004.31,0002.45,0002.03
2022-11-01 13:10:00,,0824.1,4.99,0.00,25.6,23.9,00.0,34.5,27.4,10.6,0000.0,0003.57,0002.44,0002.03
2022-11-01 13:11:00,,0824.0,5.00,0.00,25.6,23.9,00.0,34.5,27.4,10.6,0000.0,0003.56,0002.44,0002.05
2022-11-01 13:12:00,,0824.0,4.99,0.00,25.6,23.9,00.0,34.5,27.4,10.5,0000.0,0003.87,0002.46,0002.06
2022-11-01 13:13:00,,0824.0,5.01,0.00,25.6,23.9,00.0,34.5,27.4,10.4,0000.0,0004.13,0002.50,0002.07
2022-11-01 13:14:00,,0824.0,5.01,0.00,25.6,23.8,00.0,34.5,27.3,10.4,0000.0,0003.88,0002.43,0002.07
2022-11-01 13:15:00,,0823.9,4.99,0.00,25.5,23.8,00.0,34.5,27.3,10.5,0000.0,0004.94,0002.43,0002.07
2022-11-01 13:16:00,,0824.0,4.99,0.00,25.5,23.8,00.0,34.5,27.2,10.5,0000.0,0005.63,0002.42,0002.06
2022-11-01 13:17:00,,0824.0,5.01,0.00,25.5,23.8,00.0,34.4,27.3,10.3,0000.0,0005.62,0002.43,0002.06
2022-11-01 13:18:00,,0823.9,5.01,0.00,25.5,23.8,00.0,34.4,27.3,10.1,0000.0,0005.72,0002.48,0002.09
2022-11-01 13:19:00,,0824.0,5.00,0.00,25.5,23.8,00.0,34.4,27.2,10.3,0000.0,0005.80,0002.55,0002.12
2022-11-01 13:20:00,,0824.0,4.99,0.00,25.5,23.8,00.0,34.4,27.2,10.4,0000.0,0005.76,0002.58,0002.13
2022-11-01 13:21:00,,0823.9,5.00,0.00,25.5,23.8,00.0,34.4,27.3,10.5,0000.0,0005.94,0002.65,0002.14
2022-11-01 13:22:00,,0824.0,5.00,0.00,25.5,23.8,00.0,34.4,27.2,10.6,0000.0,0006.02,0002.70,0002.12
2022-11-01 13:23:00,,0824.0,4.99,0.00,25.5,23.8,00.0,34.4,27.2,10.6,0000.0,0005.78,0002.72,0002.11
2022-11-01 13:24:00,,0824.0,5.02,0.00,25.5,23.7,00.0,34.4,27.2,10.5,0000.0,0005.60,0002.71,0002.12
2022-11-01 13:25:00,,0823.9,4.99,0.00,25.5,23.8,00.0,34.4,27.3,10.2,0000.0,0006.06,0002.79,0002.16
2022-11-01 13:26:00,,0824.0,4.99,0.00,25.5,23.8,00.0,34.4,27.3,10.1,0000.0,0005.38,0002.87,0002.23
2022-11-01 13:27:00,,0824.0,5.00,0.00,25.5,23.8,00.0,34.4,27.3,10.3,0000.0,0005.11,0002.94,0002.28
2022-11-01 13:28:00,,0824.0,5.01,0.00,25.4,23.8,00.0,34.4,27.2,10.4,0000.0,0005.16,0002.94,0002.29
2022-11-01 13:29:00,,0824.0,5.01,0.00,25.4,23.8,00.0,34.4,27.2,10.4,0000.0,0005.30,0002.97,0002.28
2022-11-01 13:30:00,,0824.1,5.00,0.00,25.4,23.7,00.0,34.4,27.2,10.3,0000.0,0005.41,0002.99,0002.29
2022-11-01 13:31:00,,0824.0,4.99,0.00,25.4,23.7,00.0,34.4,27.2,10.5,0000.0,0005.32,0002.95,0002.29
2022-11-01 13:32:00,,0824.1,5.00,0.00,25.4,23.8,00.0,34.3,27.3,10.5,0000.0,0005.28,0002.92,0002.28
2022-11-01 13:33:00,,0824.1,5.01,0.00,25.4,23.7,00.0,34.3,27.2,10.6,0000.0,0005.27,0002.90,0002.29
2022-11-01 13:34:00,,0824.1,5.00,0.00,25.4,23.7,00.0,34.3,27.1,10.7,0000.0,0005.19,0002.85,0002.28
2022-11-01 13:35:00,,0824.1,4.98,0.00,25.4,23.7,00.0,34.3,27.2,10.7,0000.0,0005.44,0002.82,0002.26
2022-11-01 13:36:00,,0824.0,5.01,0.00,25.4,23.7,00.0,34.3,27.2,10.5,0000.0,0005.08,0002.76,0002.22
2022-11-01 13:37:00,,0824.1,5.01,0.00,25.4,23.7,00.0,34.3,27.2,10.5,0000.0,0004.69,0002.71,0002.16
2022-11-01 13:38:00,,0824.0,5.00,0.00,25.4,23.7,00.0,34.3,27.2,10.6,0000.0,0004.19,0002.61,0002.10
2022-11-01 13:39:00,,0824.0,4.99,0.00,25.4,23.7,00.0,34.3,27.2,10.6,0000.0,0004.16,0002.57,0002.08
2022-11-01 13:40:00,,0824.1,5.00,0.00,25.4,23.7,00.0,34.3,27.2,10.7,0000.0,0003.95,0002.47,0002.02
2022-11-01 13:41:00,,0824.1,5.00,0.00,25.4,23.7,00.0,34.3,27.2,10.7,0000.0,0003.77,0002.38,0001.97
2022-11-01 13:42:00,,0824.0,5.00,0.00,25.4,23.7,00.0,34.3,27.2,10.6,0000.0,0003.69,0002.35,0001.93
2022-11-01 13:43:00,,0824.1,5.00,0.00,25.4,23.7,00.0,34.3,27.2,10.6,0000.0,0003.50,0002.28,0001.91
2022-11-01 13:44:00,,0824.1,4.99,0.00,25.4,23.7,00.0,34.3,27.2,10.6,0000.0,0003.46,0002.27,0001.91
2022-11-01 13:45:00,,0824.1,5.00,0.00,25.4,23.7,00.0,34.3,27.2,10.5,0000.0,0003.54,0002.32,0001.94
2022-11-01 13:46:00,,0824.1,5.01,0.00,25.4,23.7,00.0,34.3,27.2,10.4,0000.0,0003.48,0002.43,0002.00
2022-11-01 13:47:00,,0824.0,4.99,0.00,25.4,23.7,00.0,34.3,27.2,10.5,0000.0,0003.41,0002.43,0002.03
2022-11-01 13:48:00,,0824.1,5.00,0.00,25.4,23.7,00.0,34.3,27.2,10.4,0000.0,0003.41,0002.42,0002.06
2022-11-01 13:49:00,,0824.1,5.01,0.00,25.4,23.7,00.0,34.3,27.2,10.4,0000.0,0003.68,0002.56,0002.11
2022-11-01 13:50:00,,0824.1,5.01,0.00,25.4,23.7,00.0,34.3,27.1,10.5,0000.0,0003.63,0002.61,0002.16
2022-11-01 13:51:00,,0824.1,5.00,0.00,25.3,23.7,00.0,34.2,27.1,10.7,0000.0,0003.61,0002.64,0002.20
2022-11-01 13:52:00,,0824.1,4.99,0.00,25.3,23.6,00.0,34.2,27.1,10.8,0000.0,0003.62,0002.63,0002.22
2022-11-01 13:53:00,,0824.1,5.00,0.00,25.3,23.6,00.0,34.2,27.1,10.8,0000.0,0003.88,0002.63,0002.23
2022-11-01 13:54:00,,0824.1,5.00,0.00,25.3,23.6,00.0,34.2,27.1,10.7,0000.0,0004.96,0002.66,0002.23
2022-11-01 13:55:00,,0824.1,5.00,0.00,25.3,23.6,00.0,34.2,27.1,10.8,0000.0,0005.41,0002.67,0002.23
2022-11-01 13:56:00,,0824.1,5.00,0.00,25.3,23.7,00.0,34.2,27.1,10.9,0000.0,0005.42,0002.69,0002.23
2022-11-01 13:57:00,,0824.1,5.01,0.00,25.3,23.7,00.0,34.2,27.2,10.7,0000.0,0005.22,0002.58,0002.18
2022-11-01 13:58:00,,0824.1,5.00,0.00,25.3,23.7,00.0,34.2,27.2,10.6,0000.0,0005.89,0002.57,0002.14
2022-11-01 13:59:00,,0824.1,4.98,0.00,25.3,23.7,00.0,34.2,27.1,10.6,0000.0,0005.99,0002.60,0002.12
